sat.trackr.live / text

‹ back to catalog

STARLINK-32784

NORAD 62607 · 2025-008W

PAYLOAD ACTIVE UNKNOWN

§ Identity

Operator
Country
US
Launch date
2025-01-13
Launch site
AFETR
Launch vehicle
Mass (kg)
RCS (m²)

Purposes: comms

External: N2YO · Heavens-Above · Gunter

§ Orbital elements

Epoch: 2026-09-21T13:21:27.495072Z

Period
91.58 min
Inclination
42.9815°
Eccentricity
0.0027776
Mean motion
15.72326231 rev/d
Perigee alt
333.6 km
Apogee alt
370.9 km
Semi-major
6,730.4 km
B*
1.0014e-3
RAAN
210.2532°
Arg perigee
164.6737°
Mean anomaly
195.4978°
Rev number
9,605

§ Raw data

STARLINK-327841 62607U 25008W   26264.55656823  .00141893  00000+0  10014-2 0  99992 62607  42.9815 210.2532 0027776 164.6737 195.4978 15.72326231 96055

JSON: /api/v1/satellites/62607 · /tle

For live sub-satellite position, see the globe view (requires WebGL).

§ Visibility from observer

Set your observer location to see the next 7 days of passes ≥ 10°. The values pass through the URL so the page stays shareable.

No JS? Fill the form by hand. The geolocation button needs JavaScript.